Time,TemperatureF,DewpointF,PressureIn,WindDirection,WindDirectionDegrees,WindSpeedMPH,WindSpeedGustMPH,Humidity,HourlyPrecipIn,Conditions,Clouds,dailyrainin,SoftwareType,DateUTC
2013-05-31 00:21:00,62.0,59.0,29.87,SSE,150,8.0,-999.0,89,0.00,,,-99.99,,2013-05-31 07:21:00,
2013-05-31 00:32:00,62.0,59.0,29.87,SSE,150,8.0,-999.0,89,0.00,,,-99.99,,2013-05-31 07:32:00,
2013-05-31 00:41:00,62.0,59.0,29.87,SSE,150,8.0,-999.0,89,0.00,,,-99.99,,2013-05-31 07:41:00,
2013-05-31 00:52:00,62.0,59.0,29.87,SSE,150,8.0,-999.0,89,0.00,,,-99.99,,2013-05-31 07:52:00,
2013-05-31 01:21:00,61.0,57.0,29.87,SSE,150,6.0,-999.0,88,0.00,,,-99.99,,2013-05-31 08:21:00,
2013-05-31 01:31:00,61.0,57.0,29.87,SSE,150,6.0,-999.0,88,0.00,,,-99.99,,2013-05-31 08:31:00,
2013-05-31 01:42:00,61.0,57.0,29.87,SSE,150,6.0,-999.0,88,0.00,,,-99.99,,2013-05-31 08:42:00,
2013-05-31 01:51:00,61.0,57.0,29.87,SSE,150,6.0,-999.0,88,0.00,,,-99.99,,2013-05-31 08:51:00,
2013-05-31 02:21:00,61.0,57.0,29.86,SE,140,11.0,-999.0,88,0.00,,,-99.99,,2013-05-31 09:21:00,
2013-05-31 02:32:00,61.0,57.0,29.86,SE,140,11.0,-999.0,88,0.00,,,-99.99,,2013-05-31 09:32:00,
2013-05-31 02:43:00,61.0,57.0,29.86,SE,140,11.0,-999.0,88,0.00,,,-99.99,,2013-05-31 09:43:00,
2013-05-31 02:53:00,61.0,57.0,29.86,SE,140,11.0,-999.0,88,0.00,,,-99.99,,2013-05-31 09:53:00,
2013-05-31 03:22:00,61.0,58.0,29.86,SSE,150,5.0,-999.0,89,0.00,,,-99.99,,2013-05-31 10:22:00,
2013-05-31 03:33:00,61.0,58.0,29.86,SSE,150,5.0,-999.0,89,0.00,,,-99.99,,2013-05-31 10:33:00,
2013-05-31 03:42:00,61.0,58.0,29.86,SSE,150,5.0,-999.0,89,0.00,,,-99.99,,2013-05-31 10:42:00,
2013-05-31 03:52:00,61.0,58.0,29.86,SSE,150,5.0,-999.0,89,0.00,,,-99.99,,2013-05-31 10:52:00,
2013-05-31 04:22:00,61.0,57.0,29.85,ESE,110,2.0,-999.0,88,0.00,,,-99.99,,2013-05-31 11:22:00,
2013-05-31 04:32:00,61.0,57.0,29.85,ESE,110,2.0,-999.0,88,0.00,,,-99.99,,2013-05-31 11:32:00,
2013-05-31 04:42:00,61.0,57.0,29.85,ESE,110,2.0,-999.0,88,0.00,,,-99.99,,2013-05-31 11:42:00,
2013-05-31 04:52:00,61.0,57.0,29.85,ESE,110,2.0,-999.0,88,0.00,,,-99.99,,2013-05-31 11:52:00,
2013-05-31 05:21:00,61.0,57.0,29.84,SSE,150,2.0,-999.0,87,0.00,,,-99.99,,2013-05-31 12:21:00,
2013-05-31 05:31:00,61.0,57.0,29.84,SSE,150,2.0,-999.0,87,0.00,,,-99.99,,2013-05-31 12:31:00,
2013-05-31 05:41:00,61.0,57.0,29.84,SSE,150,2.0,-999.0,87,0.00,,,-99.99,,2013-05-31 12:41:00,
2013-05-31 05:51:00,61.0,57.0,29.84,SSE,150,2.0,-999.0,87,0.00,,,-99.99,,2013-05-31 12:51:00,
2013-05-31 06:21:00,61.0,57.0,29.86,ESE,110,3.0,-999.0,87,0.00,,,-99.99,,2013-05-31 13:21:00,
2013-05-31 06:32:00,61.0,57.0,29.86,ESE,110,3.0,-999.0,87,0.00,,,-99.99,,2013-05-31 13:32:00,
2013-05-31 06:42:00,61.0,57.0,29.86,ESE,110,3.0,-999.0,87,0.00,,,-99.99,,2013-05-31 13:42:00,
2013-05-31 06:52:00,61.0,57.0,29.86,ESE,110,3.0,-999.0,87,0.00,,,-99.99,,2013-05-31 13:52:00,
2013-05-31 07:21:00,62.0,57.0,29.87,SE,140,4.0,-999.0,85,0.00,,,-99.99,,2013-05-31 14:21:00,
2013-05-31 07:32:00,62.0,57.0,29.87,SE,140,4.0,-999.0,85,0.00,,,-99.99,,2013-05-31 14:32:00,
2013-05-31 07:41:00,62.0,57.0,29.87,SE,140,4.0,-999.0,85,0.00,,,-99.99,,2013-05-31 14:41:00,
2013-05-31 07:52:00,62.0,57.0,29.87,SE,140,4.0,-999.0,85,0.00,,,-99.99,,2013-05-31 14:52:00,
2013-05-31 08:21:00,63.0,58.0,29.88,ESE,120,2.0,-999.0,83,0.00,,,-99.99,,2013-05-31 15:21:00,
2013-05-31 08:33:00,63.0,58.0,29.88,ESE,120,2.0,-999.0,83,0.00,,,-99.99,,2013-05-31 15:33:00,
2013-05-31 08:43:00,63.0,58.0,29.88,ESE,120,2.0,-999.0,83,0.00,,,-99.99,,2013-05-31 15:43:00,
2013-05-31 08:53:00,63.0,58.0,29.88,ESE,120,2.0,-999.0,83,0.00,,,-99.99,,2013-05-31 15:53:00,
2013-05-31 09:22:00,64.0,58.0,29.89,North,0,0.0,-999.0,80,0.00,,,-99.99,,2013-05-31 16:22:00,
2013-05-31 09:33:00,64.0,58.0,29.89,North,0,0.0,-999.0,80,0.00,,,-99.99,,2013-05-31 16:33:00,
2013-05-31 09:42:00,64.0,58.0,29.89,North,0,0.0,-999.0,80,0.00,,,-99.99,,2013-05-31 16:42:00,
2013-05-31 09:52:00,64.0,58.0,29.89,North,0,0.0,-999.0,80,0.00,,,-99.99,,2013-05-31 16:52:00,
2013-05-31 10:22:00,66.0,58.0,29.89,WSW,240,5.0,-999.0,76,0.00,,,-99.99,,2013-05-31 17:22:00,
2013-05-31 10:32:00,66.0,58.0,29.89,WSW,240,5.0,-999.0,76,0.00,,,-99.99,,2013-05-31 17:32:00,
2013-05-31 10:42:00,66.0,58.0,29.89,WSW,240,5.0,-999.0,76,0.00,,,-99.99,,2013-05-31 17:42:00,
2013-05-31 10:52:00,66.0,58.0,29.89,WSW,240,5.0,-999.0,76,0.00,,,-99.99,,2013-05-31 17:52:00,
2013-05-31 11:22:00,65.0,58.0,29.89,South,190,2.0,-999.0,77,0.00,,,-99.99,,2013-05-31 18:22:00,
2013-05-31 11:31:00,65.0,58.0,29.89,South,190,2.0,-999.0,77,0.00,,,-99.99,,2013-05-31 18:31:00,
2013-05-31 11:41:00,65.0,58.0,29.89,South,190,2.0,-999.0,77,0.00,,,-99.99,,2013-05-31 18:41:00,
2013-05-31 11:52:00,65.0,58.0,29.89,South,190,2.0,-999.0,77,0.00,,,-99.99,,2013-05-31 18:52:00,
2013-05-31 12:22:00,65.0,59.0,29.88,SW,230,6.0,-999.0,80,0.00,,,-99.99,,2013-05-31 19:22:00,
2013-05-31 12:32:00,65.0,59.0,29.88,SW,230,6.0,-999.0,80,0.00,,,-99.99,,2013-05-31 19:32:00,
2013-05-31 12:42:00,65.0,59.0,29.88,SW,230,6.0,-999.0,80,0.00,,,-99.99,,2013-05-31 19:42:00,
2013-05-31 12:52:00,65.0,59.0,29.88,SW,230,6.0,-999.0,80,0.00,,,-99.99,,2013-05-31 19:52:00,
2013-05-31 13:22:00,66.0,59.0,29.87,WSW,240,6.0,-999.0,79,0.00,,,-99.99,,2013-05-31 20:22:00,
2013-05-31 13:31:00,66.0,59.0,29.87,WSW,240,6.0,-999.0,79,0.00,,,-99.99,,2013-05-31 20:31:00,
2013-05-31 13:41:00,66.0,59.0,29.87,WSW,240,6.0,-999.0,79,0.00,,,-99.99,,2013-05-31 20:41:00,
2013-05-31 13:51:00,66.0,59.0,29.87,WSW,240,6.0,-999.0,79,0.00,,,-99.99,,2013-05-31 20:51:00,
2013-05-31 14:22:00,67.0,60.0,29.85,WNW,290,8.0,-999.0,78,0.00,,,-99.99,,2013-05-31 21:22:00,
2013-05-31 14:32:00,67.0,60.0,29.85,WNW,290,8.0,-999.0,78,0.00,,,-99.99,,2013-05-31 21:32:00,
2013-05-31 14:42:00,67.0,60.0,29.85,WNW,290,8.0,-999.0,78,0.00,,,-99.99,,2013-05-31 21:42:00,
2013-05-31 14:53:00,67.0,60.0,29.85,WNW,290,8.0,-999.0,78,0.00,,,-99.99,,2013-05-31 21:53:00,
2013-05-31 15:22:00,67.0,60.0,29.84,WSW,250,8.0,-999.0,78,0.00,,,-99.99,,2013-05-31 22:22:00,
2013-05-31 15:33:00,67.0,60.0,29.84,WSW,250,8.0,-999.0,78,0.00,,,-99.99,,2013-05-31 22:33:00,
2013-05-31 15:42:00,67.0,60.0,29.84,WSW,250,8.0,-999.0,78,0.00,,,-99.99,,2013-05-31 22:42:00,
2013-05-31 15:52:00,67.0,60.0,29.84,WSW,250,8.0,-999.0,78,0.00,,,-99.99,,2013-05-31 22:52:00,
2013-05-31 16:21:00,66.0,60.0,29.82,West,270,9.0,-999.0,81,0.00,,,-99.99,,2013-05-31 23:21:00,
2013-05-31 16:32:00,66.0,60.0,29.82,West,270,9.0,-999.0,81,0.00,,,-99.99,,2013-05-31 23:32:00,
2013-05-31 16:42:00,66.0,60.0,29.82,West,270,9.0,-999.0,81,0.00,,,-99.99,,2013-05-31 23:42:00,
2013-05-31 16:52:00,66.0,60.0,29.82,West,270,9.0,-999.0,81,0.00,,,-99.99,,2013-05-31 23:52:00,
2013-05-31 18:21:00,66.0,60.0,29.82,WNW,300,7.0,-999.0,80,0.00,,,-99.99,,2013-06-01 01:21:00,
2013-05-31 18:32:00,66.0,60.0,29.82,WNW,300,7.0,-999.0,80,0.00,,,-99.99,,2013-06-01 01:32:00,
2013-05-31 18:42:00,66.0,60.0,29.82,WNW,300,7.0,-999.0,80,0.00,,,-99.99,,2013-06-01 01:42:00,
2013-05-31 18:52:00,66.0,60.0,29.82,WNW,300,7.0,-999.0,80,0.00,,,-99.99,,2013-06-01 01:52:00,
2013-05-31 19:21:00,65.0,60.0,29.83,WSW,250,1.0,-999.0,84,0.00,,,-99.99,,2013-06-01 02:21:00,
2013-05-31 19:32:00,65.0,60.0,29.83,WSW,250,1.0,-999.0,84,0.00,,,-99.99,,2013-06-01 02:32:00,
2013-05-31 19:42:00,65.0,60.0,29.83,WSW,250,1.0,-999.0,84,0.00,,,-99.99,,2013-06-01 02:42:00,
2013-05-31 19:51:00,65.0,60.0,29.83,WSW,250,1.0,-999.0,84,0.00,,,-99.99,,2013-06-01 02:51:00,
2013-05-31 20:21:00,64.0,60.0,29.84,South,170,2.0,-999.0,87,0.00,,,-99.99,,2013-06-01 03:21:00,
2013-05-31 20:33:00,64.0,60.0,29.84,South,170,2.0,-999.0,87,0.00,,,-99.99,,2013-06-01 03:33:00,
2013-05-31 20:43:00,64.0,60.0,29.84,South,170,2.0,-999.0,87,0.00,,,-99.99,,2013-06-01 03:43:00,
2013-05-31 20:53:00,64.0,60.0,29.84,South,170,2.0,-999.0,87,0.00,,,-99.99,,2013-06-01 03:53:00,
2013-05-31 21:23:00,64.0,60.0,29.85,SW,220,1.0,-999.0,87,0.00,,,-99.99,,2013-06-01 04:23:00,
2013-05-31 21:33:00,64.0,60.0,29.85,SW,220,1.0,-999.0,87,0.00,,,-99.99,,2013-06-01 04:33:00,
2013-05-31 21:42:00,64.0,60.0,29.85,SW,220,1.0,-999.0,87,0.00,,,-99.99,,2013-06-01 04:42:00,
2013-05-31 21:53:00,64.0,60.0,29.85,SW,220,1.0,-999.0,87,0.00,,,-99.99,,2013-06-01 04:53:00,
2013-05-31 22:22:00,63.0,59.0,29.86,SE,140,3.0,-999.0,87,0.00,,,-99.99,,2013-06-01 05:22:00,
2013-05-31 22:32:00,63.0,59.0,29.86,SE,140,3.0,-999.0,87,0.00,,,-99.99,,2013-06-01 05:32:00,
2013-05-31 22:42:00,63.0,59.0,29.86,SE,140,3.0,-999.0,87,0.00,,,-99.99,,2013-06-01 05:42:00,
2013-05-31 22:52:00,63.0,59.0,29.86,SE,140,3.0,-999.0,87,0.00,,,-99.99,,2013-06-01 05:52:00,
2013-05-31 23:22:00,63.0,59.0,29.86,North,0,0.0,-999.0,88,0.00,,,-99.99,,2013-06-01 06:22:00,
2013-05-31 23:32:00,63.0,59.0,29.86,North,0,0.0,-999.0,88,0.00,,,-99.99,,2013-06-01 06:32:00,
2013-05-31 23:42:00,63.0,59.0,29.86,North,0,0.0,-999.0,88,0.00,,,-99.99,,2013-06-01 06:42:00,
2013-05-31 23:52:00,63.0,59.0,29.86,North,0,0.0,-999.0,88,0.00,,,-99.99,,2013-06-01 06:52:00,